This demonstration page uses our WeatherBlox Daily Observations layout. Learn more.

Left ArrowRight Arrow

Hourly Observations for January 18, 2015

Temp ( °F °C ) Dew Point ( °F °C ) Humidity (%) Winds ( mph kmh ) Pressure ( in mb ) Visibility ( mi km ) Precip ( " mm )
12:53 am 00:53 Clear 34 1.1 29 -1.7 82 82 Calm 30.10 1019 10 16 0.00 0.00
1:53 am 01:53 Clear 33 0.6 29 -1.7 85 85 Calm 30.09 1019 10 16 0.00 0.00
2:53 am 02:53 Clear 32 0 29 -1.7 88 88 Calm 30.09 1019 10 16 0.00 0.00
3:53 am 03:53 Clear 31 -0.6 28 -2.2 89 89 Calm 30.06 1018 10 16 0.00 0.00
4:10 am 04:10 Clear with Mist and Fog 31 -0.6 28 -2.2 89 89 Calm 30.12 1020 2 3 0.00 0.00
4:17 am 04:17 Clear with Mist and Fog 32 0 30 -1.1 92 92 Calm 30.12 1020 4 6 0.00 0.00
4:53 am 04:53 Partly Cloudy 33 0.6 30 -1.1 89 89 Calm 30.05 1018 10 16 0.00 0.00
5:53 am 05:53 Cloudy 39 3.9 34 1.1 82 82 SSW 5 7 30.04 1017 10 16 0.00 0.00
6:53 am 06:53 Mostly Clear 38 3.3 33 0.6 83 83 WSW 5 7 30.06 1018 10 16 0.00 0.00
7:53 am 07:53 Mostly Sunny 37 2.8 33 0.6 86 86 SSW 6 9 30.07 1018 10 16 0.00 0.00
8:53 am 08:53 Sunny 39 3.9 34 1.1 82 82 SW 6 9 30.09 1019 10 16 0.00 0.00
9:53 am 09:53 Sunny 50 10 37 2.8 61 61 W 10 17 30.10 1019 10 16 0.00 0.00
10:53 am 10:53 Sunny 54 12.2 31 -0.6 42 42 NW 15 24 30.11 1020 10 16 0.00 0.00
11:53 am 11:53 Sunny 56 13.3 27 -2.8 33 33 W 15 24 30.10 1019 10 16 0.00 0.00
12:53 pm 12:53 Sunny 57 13.9 27 -2.8 32 32 WNW 16 26 30.07 1018 10 16 0.00 0.00
1:53 pm 13:53 Sunny 58 14.4 26 -3.3 29 29 W 15 24 30.06 1018 10 16 0.00 0.00
2:53 pm 14:53 Sunny 59 15 22 -5.6 24 24 NW 17 28 30.06 1018 10 16 0.00 0.00
3:53 pm 15:53 Sunny 58 14.4 22 -5.6 25 25 NW 15 24 30.08 1019 10 16 0.00 0.00
4:53 pm 16:53 Sunny 56 13.3 22 -5.6 27 27 WNW 13 20 30.09 1019 10 16 0.00 0.00
5:53 pm 17:53 Sunny 53 11.7 22 -5.6 30 30 W 7 11 30.10 1019 10 16 0.00 0.00
6:53 pm 18:53 Clear 51 10.6 21 -6.1 31 31 WSW 3 6 30.11 1020 10 16 0.00 0.00
7:53 pm 19:53 Clear 49 9.4 22 -5.6 35 35 SW 3 6 30.13 1020 10 16 0.00 0.00
8:53 pm 20:53 Clear 43 6.1 24 -4.4 47 47 Calm 30.13 1020 10 16 0.00 0.00
9:53 pm 21:53 Clear 39 3.9 27 -2.8 62 62 Calm 30.13 1020 10 16 0.00 0.00
10:53 pm 22:53 Clear 37 2.8 26 -3.3 65 65 Calm 30.14 1021 10 16 0.00 0.00
11:53 pm 23:53 Clear 34 1.1 26 -3.3 73 73 Calm 30.13 1020 10 16 0.00 0.00

Powered by AerisWeather